Orbital Elements at Epoch 2459200.5 (2020-Dec-17.0) TDB
Reference: JPL 12 (heliocentric ecliptic J2000)
Element | Value | Uncertainty (1-sigma) | Units |
e | .08724522362364988 | 6.1527e-08 | |
a | 3.048247330610204 | 3.1273e-08 | au |
q | 2.782302310590923 | 2.0649e-07 | au |
i | 9.862010492080943 | 9.283e-06 | deg |
node | 63.1703979520677 | 3.3902e-05 | deg |
peri | 239.4300885683031 | 6.8054e-05 | deg |
M | 339.8023183018787 | 5.6707e-05 | deg |
tp | 2459309.561823074426 (2021-Apr-05.06182307) | 0.00030595 | TDB |
period | 1943.899151081559 5.32 | 2.9915e-05 8.19e-08 | d yr |
n | .1851947925383376 | 2.85e-09 | deg/d |
Q | 3.314192350629484 | 3.4002e-08 | au |
|
| | Orbit Determination Parameters
Additional Information
|